Skip Page Navigation
NASA JPL Caltech
NASA Logo - Jet Propulsion Laboratory + View the NASA Portal
+ Near-Earth Object (NEO) Project
Search JPL
JPL Home Earth Solar System Stars & Galaxies Technology
JPL Solar System Dynamics
BODIES ORBITS EPHEMERIDES TOOLS PHYSICAL DATA DISCOVERY FAQ SITE MAP
JPL Small-Body Database Browser
Search: [ help ]  
13249 Marcallen (1998 MD38)
Classification: Main-belt Asteroid          SPK-ID: 2013249
Ephemeris | Orbit Diagram | Orbital Elements | Physical Parameters | Discovery Circumstances ]

[ hide orbit diagram ]
Orbit Diagram
Note: Make sure you have Java enabled on your browser to see the applet. This applet is provided as a 3D orbit visualization tool. The applet was implemented using 2-body methods, and hence should not be used for determining accurate long-term trajectories (over several years or decades) or planetary encounter circumstances. For accurate long-term ephemerides, please instead use our Horizons system.
Orbit Viewer

Additional Notes: the orbits shown in the applet are color coded. The planets are white lines, and the asteroid/comet is a blue line. The bright white line indicates the portion of the orbit that is above the ecliptic plane, and the darker portion is below the ecliptic plane. Likewise for the asteroid/comet orbit, the light blue indicates the portion above the ecliptic plane, and the dark blue the portion below the ecliptic plane.

Orbit Viewer applet originally written and kindly provided by Osamu Ajiki (AstroArts), and further modified by Ron Baalke (JPL).


Orbital Elements at Epoch 2455200.5 (2010-Jan-04.0) TDB
Reference: MPO73865 (heliocentric ecliptic J2000)
 Element Value Uncertainty (1-sigma)   Units 
e 0.1679993 n/a  
a 2.6737519 n/a AU
q 2.2245635 n/a AU
i 14.03608 n/a deg
node 284.34927 n/a deg
peri 134.59782 n/a deg
M 131.10802 n/a deg
tp 2454618.9235176
(2008-Jun-01.42351761)
n/a JED
period 1596.9086687
4.37
n/a
n/a
d
yr
n 0.22543556 n/a deg/d
Q 3.1229403 n/a AU
  Orbit Determination Parameters
   # obs. used (total)      262  
   first obs. used      1952-??-??  
   last obs. used      2005-02-04  
   # oppositions      9  
   planetary ephem.      DE403  
   quality code      0  
   fit RMS      0.57  
   data source      MPC:mpn  
   producer      MPC  

Additional Information
 T_jup = 3.317 

Ephemeris | Orbit Diagram | Orbital Elements | Physical Parameters | Discovery Circumstances ]

Physical Parameter Table
Parameter Symbol Value Units Sigma Reference Notes
absolute magnitude H 12.00 mag n/a IRAS-A-FPA-3-RDR-IMPS-V6.0 IRAS observations used: 6
diameter diameter 20.55 km 1.5 IRAS-A-FPA-3-RDR-IMPS-V6.0 IRAS observations used: 6
geometric albedo albedo 0.0663   0.011 IRAS-A-FPA-3-RDR-IMPS-V6.0 IRAS observations used: 6

13249 Marcallen           Discovered 1998 June 18 by the Lowell Observatory Near-Earth-Object Search at the Anderson Mesa Station of the Lowell Observatory.
Marc Allen (b. 1951) is a stellar and solar astronomer who has directed the Space Studies Board of the U.S. National Research Council (1991-1999) and is currently Assistant Associate Administrator for Strategic and International Planning at NASA. The name was suggested by L. A. McFadden, L. J. Lanzerotti and C. R. Canizares.
NOTE: some special characters may not display properly (any characters within {} are an attempt to place the proper accent above a character)
Reference: 20010705/MPCPages.arcLast Updated: 2009-05-11

Alternate Designations
 1998 MD38 = 1952 BA1 = 1961 DG 
Ephemeris | Orbit Diagram | Orbital Elements | Physical Parameters | Discovery Circumstances ]
ABOUT SSD CREDITS/AWARDS PRIVACY/COPYRIGHT GLOSSARY LINKS
FirstGov 2009-Nov-23 21:09 UT
(server date/time)  
NASA Home Page
Site Manager:   Donald K. Yeomans
Webmaster  Alan B. Chamberlin